Regional Weather Roundup
Issued by NWS

Home | Current Version | Previous Version | Graphics & Text | Print | Product List | Glossary On
Versions: 1 2 3 4 5 6 7 8 9 10 11 12 13 14 15 16 17 18 19 20 21 22 23 24 25 26 27 28 29 30 31 32 33 34 35 36 37 38 39 40 41 42 43 44 45 46 47 48 49 50
000
ASUS43 KDMX 242301
RWRIA

WEATHER ROUNDUP FOR IOWA
NATIONAL WEATHER SERVICE DES MOINES IA
500 PM CST FRI FEB 24 2017

NOTE: "FAIR" INDICATES FEW OR NO CLOUDS BELOW 12,000 FEET WITH NO
SIGNIFICANT WEATHER AND/OR OBSTRUCTIONS TO VISIBILITY.

* - THESE STATIONS ARE NOT NWS STATIONS...THUS NOT UNDER NWS
QUALITY CONTROL.  THEY ALSO DO NOT REPORT WEATHER SUCH
AS PRECIPITATION OR FOG.

IAZ001>003-012>014-020>022-031>034-043>046-250000-
   NORTHWEST IOWA

CITY           SKY/WX    TMP DP  RH WIND       PRES   REMARKS
CARROLL *      SNOW      25  25 100 N22       29.84R VSB 1/4 WCI  10
CHEROKEE *     CLOUDY    26  18  72 N16G26    29.88R WCI  13
DENISON *      LGT SNOW  23  18  80 N16G24    29.86R WCI  10
LE MARS *      CLOUDY    27  18  69 N16G24    29.94R WCI  14
SHELDON *      MOSUNNY   25  21  86 N24       29.88R WCI   9
SIOUX CITY     MOSUNNY   28  18  66 NW22      29.94R WCI  14
SPENCER        CLOUDY    24  17  74 N24       29.85R WCI   8
STORM LAKE *   CLOUDY    23  18  80 N20G26    29.85R WCI   8
$$

IAZ055>058-069>071-079>083-090>094-250000-
   SOUTHWEST IOWA

CITY           SKY/WX    TMP DP  RH WIND       PRES   REMARKS
ATLANTIC *     MIX PCPN  23  21  93 NW23G29   29.87R VSB 1/2 WCI   7
AUDUBON *      LGT SNOW  23  19  86 NW16G22   29.85R VSB 3/4 WCI  10
CLARINDA *     CLOUDY    27  23  86 N21G31    29.90R FOG     WCI  13
COUNCIL BLFS * MIX PCPN  25  21  86 NW17G30   29.91R WCI  11
CRESTON *      MIX PCPN  25  23  93 NW23G29   29.82R VSB 3/4 WCI  10
HARLAN  *      MIX PCPN  23  23 100 N23       29.91R VSB 3/4 WCI   7
LAMONI         LGT SNOW  26  22  84 NW20G29   29.77R FOG     WCI  12
RED OAK *      MIX PCPN  25  21  86 NW23G36   29.90R WCI  10
SHENANDOAH *   MIX PCPN  25  21  86 NW23G31   29.92R WCI  10
$$

IAZ047>049-059>061-072>074-084-250000-
   CENTRAL IOWA

CITY           SKY/WX    TMP DP  RH WIND       PRES   REMARKS
AMES           SNOW      25  24  96 N22G36    29.78R VSB 1/2 WCI  10
ANKENY *       LGT SNOW  25  23  93 NW21G29   29.78R VSB 3/4 WCI  10
BOONE *        SNOW      23  23 100 N16G30    29.77R VSB 1/4 WCI  10
CHARITON *     LGT SNOW  27  25  93 NW20G26   29.74R VSB 3/4 WCI  13
DES MOINES     LGT SNOW  26  23  88 N15G30    29.78R VSB 3/4 WCI  14
GRINNELL*      LGT SNOW  28  26  93 NW18G24   29.71R WCI  15
KNOXVILLE *    LGT SNOW  28  25  86 NW22G29   29.71R VSB 1   WCI  15
MARSHALLTOWN   SNOW      26  24  92 N23G36    29.72R VSB 1/2 WCI  11
NEWTON *       CLOUDY    27  25  93 N26G32    29.71R FOG     WCI  11
PELLA *        LGT SNOW  29  26  90 NW21G28   29.73R WCI  16
PERRY *        SNOW      24  22  93 N21G32    29.82R VSB 1/2 WCI   9
$$

IAZ004>006-015-016-023>025-035-036-250000-
   NORTH CENTRAL IOWA

CITY           SKY/WX    TMP DP  RH WIND       PRES   REMARKS
ALGONA *       HAZE      23  19  86 N20       29.80R VSB 1/4 WCI   8
CLARION *      FOG       23  23 100 N18G31    29.79R VSB 1/4 WCI   9
ESTHERVILLE    CLOUDY    23  16  74 N21       29.82R WCI   8
FORT DODGE *   CLOUDY    23  18  80 N14G21    29.82R VSB 3/4 WCI  11
MASON CITY     LGT SNOW  22  22 100 N22       29.77R VSB 3/4 WCI   6
FOREST CITY *  LGT SNOW  23  21  93 N20G25    29.78R VSB 1   WCI   8
WEBSTER CITY * MIX PCPN  23  21  93 N23G31    29.77R VSB 1/4 WCI   7
IOWA FALLS *   CLOUDY    25  23  90 NW25G31   29.75R WCI  10
$$

IAZ007>011-017>019-026>030-037>042-050>054-066-250000-
   NORTHEAST IOWA

CITY           SKY/WX    TMP DP  RH WIND       PRES   REMARKS
CEDAR RAPIDS   LGT SNOW  32  31  96 N12       29.63R FOG     WCI  23
CHARLES CITY * SNOW      25  25 100 N18G26    29.72R VSB 1/2 WCI  11
CLINTON *      MIX PCPN  34  33  96 N14       29.61R FOG     WCI  25
DECORAH *      MIX PCPN  27  25  93 N15G23    29.65R WCI  15
DUBUQUE        CLOUDY    29  27  92 NE12      29.60R WCI  19
MONTICELLO *   CLOUDY    32  28  86 N12       29.63R WCI  23
OELWEIN *      MIX PCPN  28  28 100 N15       29.67R WCI  17
WATERLOO       LGT SNOW  28  25  88 N18       29.68R FOG     WCI  15
$$

IAZ064-065-067-068-078-250000-
   EAST CENTRAL IOWA

CITY           SKY/WX    TMP DP  RH WIND       PRES   REMARKS
DAVENPORT      CLOUDY    36  34  93 N10       29.60R FOG     WCI  28
IOWA CITY      CLOUDY    34  31  88 N10       29.65R FOG     WCI  26
MUSCATINE *    CLOUDY    36  34  93 NW9       29.63R WCI  29
QUAD CITIES    LGT RAIN  38  34  85 W10       29.59R FOG     WCI  31
$$

IAZ062-063-075>077-085>089-095>099-250000-
   SOUTHEAST IOWA

CITY           SKY/WX    TMP DP  RH WIND       PRES   REMARKS
BURLINGTON     CLOUDY    38  35  89 W14G20    29.62R WCI  30
FAIRFIELD *    CLOUDY    34  32  93 NW12      29.65R WCI  25
KEOKUK *       LGT RAIN  37  36  93 NW12      29.64R WCI  30
CENTERVILLE *  FLURRIES  30  30 100 W15G24    29.72R WCI  19
OTTUMWA        LGT SNOW  32  31  96 NW22      29.67R FOG     WCI  19
WASHINGTON *   CLOUDY    34  32  93 NW8       29.65R WCI  27
$$

ABBREVIATIONS USED IN REMARKS
   TC - TEMPERATURES IN CELSIUS
  WCI - WIND CHILL INDEX
   HX - HEAT INDEX
  VSB - VISIBILITY
$$




USA.gov is the U.S. government's official web portal to all federal, state and local government web resources and services.